Location: Bonham
(33.5773°N, 96.1783°W)
Time: 07:22:09
(UTC+00:00)

Meteor 2-3 Rocket - Visible Passes

Search period start: 18 November 2025 00:00
Search period end: 28 November 2025 00:00
Orbit: 841 x 883 km, 81.2° (Epoch: 17 November)

Date Brightness Start Highest point End Pass type
(mag) Time Alt. Az. Time Alt. Az. Time Alt. Az.
18 Nov 3.7 01:33:41 10° N 01:39:21 81° W 01:44:56 10° S visible
19 Nov 3.7 01:25:11 10° N 01:30:51 82° W 01:36:27 10° S visible
20 Nov 3.7 01:16:41 10° N 01:22:21 84° W 01:27:56 10° S visible
21 Nov 3.7 01:08:12 10° N 01:13:51 85° W 01:19:26 10° S visible
21 Nov 6.6 12:33:58 10° SE 12:37:34 17° E 12:41:10 10° NE visible
22 Nov 3.7 00:59:41 10° N 01:05:22 86° W 01:10:56 10° S visible
22 Nov 6.6 12:25:33 10° SE 12:29:05 17° E 12:32:37 10° NE visible
23 Nov 3.7 00:51:12 10° N 00:56:51 87° W 01:02:26 10° S visible
23 Nov 6.6 12:17:07 10° SE 12:20:36 17° E 12:24:04 10° NE visible
24 Nov 3.7 00:42:42 10° N 00:48:21 89° W 00:53:56 10° S visible
24 Nov 6.6 12:08:41 10° ESE 12:12:07 16° E 12:15:32 10° NE visible
25 Nov 3.7 00:34:12 10° N 00:39:51 90° W 00:45:26 10° S visible
25 Nov 6.7 12:00:16 10° ESE 12:03:37 16° E 12:06:59 10° NE visible
26 Nov 3.7 00:25:42 10° N 00:31:21 89° E 00:36:56 10° S visible
26 Nov 6.7 11:51:50 10° ESE 11:55:08 16° E 11:58:25 10° NE visible
27 Nov 3.7 00:17:12 10° N 00:22:51 88° ENE 00:28:25 10° S visible
27 Nov 6.7 11:43:25 10° ESE 11:46:39 15° E 11:49:52 10° NE visible
